Theta_e
333 327 320 309 309 320 324 324 322 323 323 321 312 309 309 309 309 309 309 308 308 307 307 306 306 305 305 305 305 305 305 305 305 305 305 304 305 305 305 307 317 322 324
330 328 319 307 317 324 324 324 323 323 323 321 314 310 310 309 309 309 309 309 308 308 307 306 306 306 306 306 306 306 306 306 306 305 305 305 304 304 304 304 305 305 314
332 331 319 312 322 324 324 324 324 323 323 320 317 313 309 309 309 309 308 308 308 307 307 306 306 306 306 306 306 306 307 307 306 306 305 305 304 304 303 304 304 304 304
331 321 316 313 317 318 324 323 322 323 322 319 317 314 311 309 308 308 308 307 307 307 307 307 306 306 306 306 306 307 307 307 307 306 306 305 305 304 303 302 302 302 303
327 323 316 310 314 320 323 322 321 321 319 318 316 313 312 311 309 308 307 307 307 307 307 307 306 306 306 306 306 306 306 307 307 307 307 306 305 304 303 302 301 301 301
327 325 322 318 311 320 320 318 318 319 317 316 314 312 312 312 311 311 310 310 309 308 307 307 307 306 306 306 306 306 306 306 306 306 306 306 306 305 304 303 300 299 299
327 325 324 323 319 317 317 316 316 316 315 315 313 313 313 312 311 310 311 311 310 309 309 308 308 307 307 306 306 306 306 306 306 306 306 306 306 305 305 303 302 300 298
327 327 324 323 320 313 316 314 314 314 314 313 312 312 314 313 312 311 311 311 310 310 310 310 309 308 308 307 307 307 307 307 308 307 305 305 304 304 304 302 300 300 300
327 325 324 322 319 312 313 313 312 312 312 312 311 311 311 311 311 311 311 311 311 311 310 310 310 309 308 309 308 308 308 308 308 307 305 304 303 303 303 302 300 299 300
324 324 319 321 319 312 312 312 312 312 312 312 311 311 311 311 311 311 311 311 311 311 311 310 310 309 309 309 309 308 308 308 306 305 304 303 303 303 302 302 301 300 299
325 321 317 317 315 312 311 312 312 312 312 312 312 311 312 312 312 311 311 311 311 310 310 310 310 309 309 309 308 307 307 306 305 304 304 304 303 303 302 302 301 301 301
319 314 312 313 312 311 311 311 312 312 312 311 311 311 311 311 309 308 309 309 309 310 310 310 310 309 309 308 307 306 306 305 305 304 304 304 302 303 302 301 302 303 303
327 324 317 311 311 311 311 311 312 312 312 312 312 312 313 309 310 310 311 311 311 311 311 311 310 309 308 307 307 307 306 305 304 302 303 302 302 301 300 300 302 302 302
325 325 318 315 311 311 311 312 312 312 312 311 311 311 312 309 310 311 311 311 311 311 311 310 310 308 307 307 307 305 304 304 304 303 303 302 300 299 298 299 300 300 300
324 324 319 315 312 313 312 312 313 312 312 312 312 311 311 310 311 312 312 310 311 310 309 308 308 306 304 304 306 304 304 302 301 300 299 298 298 297 298 299 299 300 301
324 322 319 317 317 313 313 312 312 312 312 312 312 311 311 312 312 310 309 309 308 308 309 309 308 305 304 305 302 299 298 298 298 298 297 296 296 297 297 298 299 299 298
319 318 318 317 315 312 312 312 312 311 312 312 311 311 310 309 309 308 308 308 307 308 308 304 303 302 300 299 297 296 296 296 296 297 297 297 297 297 297 298 297 298 298
319 318 317 316 316 316 314 313 313 313 312 311 310 310 309 308 308 307 306 306 303 301 300 299 299 298 297 297 297 298 298 298 298 297 297 297 297 297 297 295 295 296 295
318 317 317 315 315 314 312 312 312 312 311 310 308 307 307 307 306 304 301 300 299 299 298 296 296 297 297 297 296 295 295 296 296 296 295 295 294 294 295 296 296 295 294
315 315 313 313 312 312 311 311 311 310 309 309 308 306 304 302 301 300 299 299 297 296 297 297 297 297 297 296 295 295 294 294 294 294 294 293 293 293 293 293 293 293 295
311 311 311 311 309 306 305 304 303 303 303 302 301 301 300 299 299 298 297 297 298 298 298 297 296 295 294 293 293 293 293 293 293 293 294 295 295 294 295 295 293 294 295
304 304 303 303 302 302 302 301 300 300 300 299 299 299 298 298 297 297 297 297 297 296 295 293 293 293 292 292 291 292 292 293 295 295 294 294 293 294 295 295 295 295 295
300 300 300 299 298 297 296 295 295 294 294 294 293 294 294 295 295 295 295 294 293 293 293 293 292 292 292 292 292 293 294 295 294 294 293 292 293 293 294 294 294 294 294
295 295 294 294 294 294 294 294 294 293 293 293 292 292 293 293 292 292 293 293 292 292 293 294 294 293 294 295 295 294 294 293 293 293 292 292 292 293 293 294 293 293 294
294 294 294 294 294 294 293 292 292 292 291 291 291 291 291 292 291 291 292 293 294 294 293 293 293 293 293 292 292 292 293 292 291 291 291 292 293 293 293 292 293 294 294
294 294 294 294 293 292 292 291 292 293 293 292 291 291 291 291 291 293 295 295 294 292 292 292 292 292 291 291 290 290 289 289 289 289 290 292 291 291 292 292 293 292 292
Wind_Speed
19 15 15 20 27 30 24 21 18 16 14 14 14 15 17 18 18 19 19 17 17 18 18 18 19 19 20 21 22 23 23 23 23 23 22 21 20 19 18 16 14 14 11
19 15 17 24 31 28 24 19 16 17 15 13 15 13 14 15 15 16 17 17 16 16 17 17 17 18 19 19 20 22 22 23 23 23 23 22 21 19 17 15 14 12 10
18 13 20 28 30 28 23 18 20 18 16 14 13 13 12 13 14 14 15 14 14 15 14 15 15 16 17 17 18 20 20 21 21 21 21 21 20 20 19 17 15 12 10
16 15 22 28 27 27 25 20 18 21 17 14 12 12 12 12 12 12 12 12 11 11 11 12 12 12 13 14 15 16 18 18 19 19 19 19 20 19 19 17 16 14 12
19 16 20 25 24 25 25 20 20 21 20 15 12 12 11 10 10 10 9 8 8 8 7 7 8 8 9 10 11 13 14 15 15 16 17 17 17 17 17 17 17 16 14
22 17 19 21 23 26 22 20 21 22 18 16 14 13 12 10 9 7 6 5 4 4 4 3 3 3 4 6 8 9 10 12 13 14 15 16 17 18 18 17 18 17 17
25 22 19 18 19 26 24 22 22 21 20 17 16 15 12 9 7 6 6 4 2 2 1 0 1 2 1 2 5 7 9 10 12 13 14 15 16 17 18 20 20 20 16
28 19 21 17 15 24 26 24 23 25 21 20 16 17 13 12 11 9 8 6 4 2 3 3 3 4 4 3 4 7 9 10 13 15 15 14 15 16 18 19 20 21 20
29 23 22 15 16 23 28 26 24 23 24 23 17 10 7 6 12 12 11 9 7 5 5 6 5 5 5 5 6 8 9 11 15 15 14 14 15 17 18 19 20 21 21
30 24 27 19 17 23 25 26 25 22 23 24 23 15 8 5 6 6 13 13 11 9 8 9 9 9 8 8 9 10 12 14 16 15 15 17 20 21 21 20 22 23 23
22 21 22 23 20 22 23 25 24 23 23 24 25 20 9 6 9 8 6 8 9 11 14 13 14 13 12 12 11 12 14 16 16 16 17 21 25 25 24 25 25 25 25
28 28 26 25 24 23 24 24 24 25 25 26 25 15 9 8 7 6 4 1 6 10 11 14 16 16 16 15 14 13 14 15 16 18 21 24 24 25 26 26 23 22 22
22 21 21 22 24 24 24 24 25 27 27 28 22 15 10 9 5 5 10 15 15 16 13 12 13 14 15 15 16 17 15 16 19 22 28 28 28 27 27 23 22 24 24
13 17 23 22 25 25 25 26 27 29 29 24 18 14 16 18 15 19 20 22 18 18 15 15 14 14 15 15 15 15 16 21 27 27 28 31 27 27 28 28 27 24 21
11 12 20 24 22 25 22 22 25 28 25 21 25 24 25 27 22 28 21 15 17 17 13 10 11 11 12 14 21 22 24 23 23 25 23 24 25 29 31 28 23 20 20
12 14 17 19 20 24 23 25 26 25 25 24 22 23 28 27 24 14 12 11 11 11 13 13 16 18 19 21 22 20 19 20 19 21 23 23 24 25 28 25 20 20 21
11 12 10 11 15 20 23 24 26 27 29 26 25 23 13 11 10 12 12 13 16 20 19 14 15 17 20 21 21 21 20 21 21 21 22 24 26 25 26 18 21 23 23
10 11 12 13 12 12 13 16 16 15 12 11 12 11 12 12 13 13 14 16 13 12 14 17 19 22 24 22 21 21 20 20 20 21 23 26 30 30 23 24 25 24 24
11 12 13 13 13 12 12 11 10 9 10 10 11 11 11 12 13 13 12 13 14 15 16 18 20 20 22 22 24 25 24 23 24 25 25 24 24 21 23 25 24 26 22
11 13 12 11 10 9 7 7 8 9 11 12 13 12 11 11 11 12 14 15 16 15 15 16 18 20 23 24 22 23 26 25 28 25 24 25 22 22 24 27 29 26 21
11 11 10 10 8 7 6 6 6 6 7 9 9 10 11 12 13 15 15 15 14 15 16 17 20 21 24 24 23 23 26 26 23 20 21 22 20 19 20 19 18 18 19
10 8 8 7 6 5 6 8 7 9 11 11 11 13 14 13 14 14 13 14 16 15 17 19 19 21 22 22 21 19 21 23 24 16 24 26 24 23 20 16 16 17 18
6 4 5 5 5 7 8 9 11 11 12 12 13 13 13 13 14 15 15 16 15 15 16 20 19 16 17 15 15 17 20 18 24 26 27 30 27 25 18 20 19 19 20
6 6 6 5 4 6 6 6 7 7 8 9 10 11 12 11 13 14 14 14 16 13 10 11 15 15 16 13 14 21 22 26 28 27 25 29 25 26 21 15 17 18 19
5 5 4 3 3 3 2 4 5 6 7 9 9 11 12 11 12 11 11 12 10 11 13 17 13 13 16 21 23 26 26 28 27 24 23 21 18 18 19 20 17 12 15
3 4 5 5 4 2 4 5 6 6 7 8 9 10 10 8 5 4 10 11 12 14 11 11 12 15 17 15 13 14 16 17 20 22 15 18 21 21 18 17 8 19 16
Wind_Direction
181 173 167 166 163 162 164 161 150 142 125 112 119 122 122 121 119 115 112 109 105 100 96 91 86 81 78 75 72 68 65 63 61 58 57 56 55 53 50 46 41 46 52
184 175 169 165 163 164 167 168 160 152 136 119 118 125 125 124 122 121 117 112 107 102 97 91 88 85 82 78 75 72 67 63 60 57 55 52 51 50 51 47 41 37 35
182 189 173 167 165 168 171 167 157 157 150 134 124 122 130 126 124 122 118 116 112 103 98 94 91 87 84 78 73 69 65 60 56 53 50 49 47 43 39 37 36 30 26
184 179 174 172 174 177 182 178 168 167 159 150 136 124 131 135 133 128 123 116 107 102 101 93 89 86 81 75 68 62 57 53 48 45 41 39 36 35 32 30 26 21 14
182 177 173 175 176 180 181 184 175 173 164 158 142 131 129 132 138 137 134 124 118 108 95 91 86 84 76 67 60 56 50 43 38 32 28 25 24 23 22 19 15 10 6
182 179 174 176 181 182 181 177 175 173 172 164 154 143 140 136 132 135 144 139 135 126 110 96 82 80 74 57 43 36 34 30 22 16 13 10 7 4 3 6 5 3 356
190 187 184 178 180 187 183 182 179 179 174 173 165 157 161 162 162 157 163 158 160 154 152 232 298 307 337 12 15 6 10 11 5 359 354 353 350 349 348 347 347 348 349
196 198 197 190 189 189 190 190 195 182 186 182 183 168 177 197 207 208 209 197 198 242 284 291 293 293 289 313 327 341 348 345 348 345 340 336 335 335 336 336 336 337 337
192 197 198 205 205 198 196 198 202 207 193 187 195 188 167 200 206 223 230 229 234 255 278 277 289 292 284 294 311 328 328 330 332 330 324 322 319 321 324 327 326 325 326
188 186 194 215 218 206 204 203 206 213 208 197 193 204 207 177 175 205 229 230 236 245 265 267 272 274 279 286 302 308 315 314 319 319 318 318 318 319 320 320 320 317 314
184 180 193 213 215 208 207 207 210 211 212 207 201 200 190 203 200 180 173 202 234 259 263 258 257 260 268 270 279 285 294 303 308 306 307 312 308 311 314 318 318 317 315
182 179 195 204 207 209 212 216 215 211 210 207 195 190 206 216 202 183 159 182 282 288 272 252 254 258 263 260 265 272 283 288 289 294 302 307 305 309 309 314 319 318 314
192 202 193 205 210 212 218 220 215 213 207 202 205 237 243 183 201 262 288 283 285 271 268 262 256 257 253 251 260 268 278 282 291 299 304 301 302 303 307 314 314 310 306
213 207 206 211 213 208 214 212 209 205 203 206 224 265 258 227 257 294 291 293 268 254 255 258 264 251 245 247 255 259 271 284 289 290 296 297 293 296 298 301 306 306 299
218 230 220 207 204 219 204 210 208 213 211 226 246 268 239 238 262 274 274 253 252 254 249 242 246 250 246 254 275 280 284 280 282 293 294 291 293 296 299 303 303 300 300
213 211 213 214 223 219 216 211 218 231 239 242 251 243 254 257 268 259 233 232 223 232 266 261 248 249 259 277 282 284 287 290 290 287 290 296 298 303 307 295 293 293 299
148 151 157 178 198 205 218 227 230 247 257 260 255 262 251 228 224 223 225 231 248 270 273 260 269 277 282 284 289 292 293 292 287 286 289 291 297 302 312 296 296 295 297
146 154 154 162 185 198 212 224 229 232 230 222 224 221 230 224 218 229 246 263 258 261 270 276 281 284 286 291 294 291 290 287 283 283 285 289 292 298 292 293 290 296 300
165 159 157 162 169 165 174 182 195 211 209 215 216 204 210 227 240 242 242 254 265 271 280 287 289 292 296 298 298 298 295 291 288 289 293 296 299 290 281 286 289 287 295
147 145 142 151 164 172 191 204 212 217 223 219 227 224 216 221 236 252 261 270 276 280 284 287 289 293 294 300 302 305 300 299 298 296 297 299 304 293 289 288 284 284 275
135 143 152 153 168 151 159 169 178 180 201 209 215 227 238 245 256 265 272 278 280 283 285 288 293 296 299 300 300 306 303 304 304 305 305 305 303 298 298 300 295 275 269
132 134 145 149 161 180 201 212 222 226 233 236 242 246 251 258 265 268 273 275 280 284 289 295 297 299 299 300 304 304 306 305 311 312 313 309 310 313 308 306 291 281 277
143 176 189 202 213 232 239 242 241 242 244 248 250 253 257 258 260 263 267 273 276 279 286 287 291 297 303 313 311 305 299 298 303 307 309 307 306 304 300 298 300 291 284
160 193 209 212 216 239 254 251 253 253 250 251 251 256 257 259 265 270 273 282 286 286 277 280 287 297 299 310 298 292 298 295 296 299 302 302 310 305 305 299 307 303 290
176 194 216 218 218 237 259 276 275 264 262 259 263 265 270 268 267 273 282 286 292 291 282 284 275 278 283 286 287 286 289 294 303 307 312 312 312 300 304 308 311 315 333
199 212 214 226 231 246 267 277 286 258 252 260 264 267 270 270 238 227 283 281 280 291 289 282 287 291 297 306 304 302 303 302 302 309 305 300 303 310 315 308 297 299 311